Miscellaneous Local Product
Issued by NWS Hastings, NE

Home | Current Version | Previous Version | Text Only | Print | Product List | Glossary Off
Versions: 1 2 3 4 5 6 7 8 9 10 11 12 13 14 15 16 17 18 19 20 21 22 23 24 25 26 27 28 29 30 31 32 33 34 35 36 37 38 39 40 41 42 43 44 45 46 47 48 49 50

000
AXUS43 KGID 260402
MISGRI

GID CWA HOURLY WEATHER ROUNDUP
NATIONAL WEATHER SERVICE HASTINGS NE
1100 PM CDT SAT APR 25 2015

NOTE: "FAIR" INDICATES FEW OR NO CLOUDS BELOW 12,000 FEET WITH NO
SIGNIFICANT WEATHER AND/OR OBSTRUCTIONS TO VISIBILITY.

...SOUTH CENTRAL NEBRASKA...

CITY           SKY/WX    TMP DP  RH WIND       PRES   REMARKS
GRAND ISLAND   CLOUDY    49  44  83 E14       29.88R
HASTINGS       CLOUDY    48  45  89 NE12      29.85R FOG
KEARNEY        CLOUDY    48  45  87 E14G20    29.87R
ORD            PTCLDY    46  42  86 CALM      29.87R
YORK           CLOUDY    48  45  87 E17       29.87R
AURORA         CLOUDY    49  47  93 E14       29.87R
LEXINGTON      CLOUDY    51  46  84 E12       29.85R
HOLDREGE       CLOUDY    47  45  93 NE14      29.84R FOG
HEBRON         CLOUDY    49  46  90 E10       29.85R FOG

...NEBRASKA PANHANDLE...

CITY           SKY/WX    TMP DP  RH WIND       PRES   REMARKS
CHADRON        CLOUDY    50  48  93 E5        29.82R
ALLIANCE       CLOUDY    50  46  86 E12       29.82S
SCOTTSBLUFF    CLOUDY    52  47  83 E7        29.79R
SIDNEY         LGT RAIN  51  46  83 E6        29.83R

...WESTERN AND NORTH CENTRAL NEBRASKA...

CITY           SKY/WX    TMP DP  RH WIND       PRES   REMARKS
VALENTINE      CLOUDY    54  45  71 E7        29.87R
AINSWORTH      CLOUDY    47  43  85 E5        29.88R
ONEILL         CLOUDY    51  46  81 SE5       29.89R
BROKEN BOW     CLOUDY    51  46  83 E12       29.86R
IMPERIAL       CLOUDY    52  47  83 E15G23    29.80R
NORTH PLATTE   NOT AVBL
MCCOOK         CLOUDY    51  47  86 E16       29.82R

...EASTERN NEBRASKA...

CITY           SKY/WX    TMP DP  RH WIND       PRES   REMARKS
NORFOLK        CLOUDY    51  42  71 E10       29.90R
SO SIOUX CITY  CLOUDY    54  40  59 E13       29.91R
TEKAMAH        CLOUDY    48  43  82 NE7       29.90R
COLUMBUS       CLOUDY    48  41  76 E7        29.90R
ALBION         CLOUDY    50  43  76 E9        29.89R
OMAHA EPPLEY   CLOUDY    51  43  74 NE12      29.88R
OFFUTT AFB     CLOUDY    50  44  79 NE9       29.87R
MILLARD        CLOUDY    51  44  75 E3        29.88R
LINCOLN        CLOUDY    50  45  83 NE9       29.88R
NEBRASKA CITY  CLOUDY    49  45  84 E16       29.86R
BEATRICE       CLOUDY    48  45  88 NE10      29.85S
FALLS CITY     CLOUDY    49  46  90 NE7       29.84R

...NORTHERN KANSAS...

CITY           SKY/WX    TMP DP  RH WIND       PRES   REMARKS
GOODLAND       CLOUDY    53  51  93 E16       29.78R
HILL CITY      CLOUDY    52  48  86 E13       29.82R
NORTON         CLOUDY    48  43  81 NE14G21   29.82R HAZE
PHILLIPSBURG   CLOUDY    52  48  87 NE13      29.85R
SMITH CENTER   CLOUDY    48  46  93 NE13      29.84R FOG
HAYS           CLOUDY    52  43  71 NE18      29.81R
RUSSELL        CLOUDY    51  49  92 NE14      29.80R
CONCORDIA      CLOUDY    50  46  86 NE12      29.83R
SALINA         CLOUDY    54  48  80 NE14      29.82R
TOPEKA         CLOUDY    50  46  86 N7        29.82R



USA.gov is the U.S. government's official web portal to all federal, state and local government web resources and services.